This is the latest recevied weather packets stored in our database for station/object EA5JPW-10. If no packets are shown the sender has not sent any weather packets the latest 10 day(s).
| Time | Temp. | Humidity | Pressure | Rain* | Wind** | Luminosity | Snow |
|---|---|---|---|---|---|---|---|
| 1777708154 | 22.22° C | 45% | 999.4 hPa | - | - | - | - |
| 1777707254 | 22.78° C | 45% | 999.6 hPa | - | - | - | - |
| 1777706354 | 22.78° C | 45% | 999.7 hPa | - | - | - | - |
| 1777705457 | 21.67° C | 46% | 999.9 hPa | - | - | - | - |
| 1777704557 | 21.11° C | 46% | 1000 hPa | - | - | - | - |
| 1777703653 | 19.44° C | 46% | 999.6 hPa | - | - | - | - |
| 1777702753 | 19.44° C | 46% | 999.6 hPa | - | - | - | - |
| 1777701853 | 19.44° C | 47% | 999.9 hPa | - | - | - | - |
| 1777700953 | 19.44° C | 46% | 999.1 hPa | - | - | - | - |
| 1777700050 | 20° C | 46% | 999.4 hPa | - | - | - | - |
| 1777699149 | 19.44° C | 47% | 999.5 hPa | - | - | - | - |
| 1777698249 | 18.89° C | 47% | 999.2 hPa | - | - | - | - |
| 1777697349 | 18.89° C | 47% | 999.6 hPa | - | - | - | - |
| 1777696449 | 18.33° C | 47% | 999.3 hPa | - | - | - | - |
| 1777695549 | 18.33° C | 47% | 999.3 hPa | - | - | - | - |
| 1777694649 | 18.33° C | 47% | 999.3 hPa | - | - | - | - |
| 1777693748 | 18.89° C | 47% | 999.2 hPa | - | - | - | - |
| 1777692848 | 19.44° C | 47% | 999.7 hPa | - | - | - | - |
| 1777691948 | 18.89° C | 47% | 999.8 hPa | - | - | - | - |
| 1777691047 | 18.89° C | 47% | 999.6 hPa | - | - | - | - |
| 1777690147 | 18.89° C | 47% | 999.9 hPa | - | - | - | - |
| 1777689247 | 18.89° C | 47% | 999.7 hPa | - | - | - | - |
| 1777688347 | 19.44° C | 46% | 999.1 hPa | - | - | - | - |
| 1777687447 | 18.89° C | 47% | 999.3 hPa | - | - | - | - |
| 1777686552 | 18.33° C | 47% | 1000 hPa | - | - | - | - |
* Rain since midnight (hover to see other rain measurements)
** Current wind speed in m/s (hover to see current wind gust speed)